Location: Casilda
(33.0440°S, 61.1680°W)
Time: 20:33:48
(UTC-03:00)

ISS - Pass Details

Date: 30 November 2023
Orbit: 415 x 417 km, 51.6° (Epoch: 04 December)

Event Time Altitude Azimuth Distance (km) Brightness Sun altitude
Exits shadow 03:19:12 11° 210° (SSW) 1,472 -0.8 -25.2°
Maximum altitude 03:19:22 11° 208° (SSW) 1,471 -0.7 -25.2°
Drops below altitude 10° 03:20:15 10° 192° (SSW) 1,519 -0.5 -25.1°
Sets 03:23:53 0° 152° (SSE) 2,389 1.4 -24.6°
